Nashua, NH

2:12 PM EST on December 15, 2017 (GMT -0500)
Boire

Weather History for KASH - December, 2013

Change the Weather History Date:

Sunday, December 29, 2013

  Actual Average Record
Temperature  
Mean Temperature 30 °F -  
Max Temperature 37 °F 37 °F 64 °F (1982)
Min Temperature 24 °F 16 °F -20 °F (1951)
Degree Days  
Heating Degree Days 34    
Moisture  
Dew Point 31 °F    
Average Humidity 94    
Maximum Humidity 100    
Minimum Humidity 71    
Precipitation  
Precipitation 1.06 in - - ()
Sea Level Pressure  
Sea Level Pressure 30.10 in    
Wind  
Wind Speed 2 mph (North)    
Max Wind Speed 16 mph    
Max Gust Speed -    
Visibility 5 miles    
Events Fog , Rain    
Averages and records for this station are not official NWS values.
T = Trace of Precipitation, MM = Missing Value Source: NWS Daily Summary

Daily Weather History Graph

Daily Weather History Graph

Search for Another Location

Airport or City:

Trip Planner

Search our weather history database for the weather conditions in past years. The results will help you decide how hot, cold, wet, or windy it might be!

Date:

Astronomy

Dec. 29, 2013 Rise Set
Actual Time 7:16 AM EST 4:20 PM EST
Civil Twilight 6:44 AM EST 4:52 PM EST
Nautical Twilight 6:08 AM EST 5:28 PM EST
Astronomical Twilight 5:34 AM EST 6:02 PM EST
Moon 3:54 AM EST (12/29) 1:57 PM EST (12/29)
Length of Visible Light 10h 08m
Length of Day
9h 04m
Waning Crescent, 11% of the Moon is Illuminated
Dec 29
Waning Crescent
Jan 1
New
Jan 7
First Quarter
Jan 15
Full
Jan 24
Last Quarter

Hourly Weather History & Observations

Time (EST) Temp. Windchill Dew Point Humidity Pressure Visibility Wind Dir Wind Speed Gust Speed Precip Events Conditions
12:51 AM 25.2 °F - 23.0 °F 91% 30.77 in 10.0 mi Calm Calm - N/A   Clear
1:51 AM 25.2 °F - 23.0 °F 91% 30.76 in 10.0 mi Calm Calm - N/A   Clear
2:51 AM 24.1 °F - 23.0 °F 96% 30.78 in 9.0 mi Calm Calm - N/A   Clear
3:51 AM 26.1 °F - 24.1 °F 92% 30.77 in 10.0 mi Calm Calm - N/A   Clear
4:51 AM 26.1 °F - 24.1 °F 92% 30.77 in 10.0 mi Calm Calm - N/A   Clear
5:51 AM 26.1 °F - 24.1 °F 92% 30.75 in 10.0 mi Calm Calm - N/A   Clear
6:51 AM 27.1 °F - 25.2 °F 92% 30.75 in 10.0 mi Calm Calm - N/A   Clear
7:51 AM 28.0 °F - 26.1 °F 92% 30.75 in 10.0 mi Calm Calm - N/A   Clear
8:51 AM 29.1 °F - 26.1 °F 88% 30.78 in 10.0 mi Calm Calm - N/A   Clear
9:51 AM 32.0 °F - 27.1 °F 82% 30.75 in 10.0 mi Calm Calm - N/A   Clear
10:51 AM 32.9 °F - 28.0 °F 82% 30.69 in 10.0 mi Calm Calm - N/A   Clear
11:51 AM 34.9 °F - 28.0 °F 76% 30.68 in 10.0 mi Calm Calm - N/A   Clear
12:51 PM 36.9 °F - 29.1 °F 74% 30.63 in 10.0 mi Calm Calm - N/A   Clear
1:51 PM 37.9 °F - 29.1 °F 71% 30.59 in 10.0 mi Calm Calm - N/A   Clear
2:51 PM 34.9 °F - 32.0 °F 89% 30.58 in 5.0 mi Calm Calm - 0.01 in   Scattered Clouds
3:51 PM 34.0 °F - 32.9 °F 96% 30.52 in 2.5 mi Calm Calm - 0.06 in Rain Rain
4:51 PM 34.9 °F - 34.9 °F 100% 30.45 in 4.0 mi Calm Calm - 0.15 in Rain Light Rain
5:16 PM 35.6 °F - 33.8 °F 93% 29.66 in - Calm Calm - 0.05 in Rain Rain
5:23 PM 35.6 °F - 33.8 °F 93% 29.65 in 1.0 mi Calm Calm - 0.06 in Rain Rain
5:26 PM 35.6 °F - 35.6 °F 100% 29.66 in 1.2 mi Calm Calm - 0.07 in Rain Rain
5:37 PM 35.6 °F - 33.8 °F 93% 29.65 in 1.8 mi Calm Calm - 0.10 in Rain Rain
5:42 PM 35.6 °F - 33.8 °F 93% 29.65 in 1.0 mi Calm Calm - 0.11 in Rain Rain
5:51 PM 34.9 °F - 34.0 °F 97% 30.40 in 0.2 mi Calm Calm - 0.15 in Fog , Rain Rain
5:59 PM 35.6 °F - 33.8 °F 93% 29.62 in 0.8 mi Calm Calm - 0.04 in Rain Heavy Rain
6:05 PM 35.6 °F 29.9 °F 35.6 °F 100% 29.62 in 1.2 mi North 6.9 mph - 0.07 in Rain Heavy Rain
6:28 PM 35.6 °F 32.8 °F 35.6 °F 100% 29.63 in 1.8 mi North 3.5 mph - 0.20 in Rain Heavy Rain
6:51 PM 34.9 °F - 34.9 °F 100% 30.38 in 1.8 mi Calm Calm - 0.27 in Rain Rain
6:59 PM 35.6 °F 32.8 °F 33.8 °F 93% 29.62 in 2.0 mi North 3.5 mph - 0.03 in Rain Heavy Rain
7:33 PM 33.8 °F 25.8 °F 33.8 °F 100% 29.61 in 2.5 mi North 10.4 mph - 0.12 in Rain Rain
7:40 PM 33.8 °F 26.4 °F 33.8 °F 100% 29.59 in 2.5 mi North 9.2 mph - 0.14 in Rain Heavy Rain
7:51 PM 34.0 °F 26.0 °F 34.0 °F 100% 30.33 in 2.5 mi North 10.4 mph - 0.18 in Rain Heavy Rain
7:58 PM 33.8 °F 26.4 °F 33.8 °F 100% 29.57 in 2.5 mi North 9.2 mph - 0.02 in Rain Rain
8:06 PM 33.8 °F 25.8 °F 33.8 °F 100% 29.55 in 3.0 mi North 10.4 mph - 0.03 in Rain Rain
8:19 PM 33.8 °F 26.4 °F 33.8 °F 100% 29.53 in 3.0 mi North 9.2 mph - 0.05 in Rain Light Rain
8:31 PM 33.8 °F 26.4 °F 33.8 °F 100% 29.52 in 2.5 mi North 9.2 mph - 0.06 in Rain Rain
8:51 PM 34.0 °F 28.0 °F 34.0 °F 100% 30.24 in 2.5 mi North 6.9 mph - 0.08 in Rain Light Rain
8:58 PM 33.8 °F 26.4 °F 33.8 °F 100% 29.48 in 2.5 mi North 9.2 mph - 0.01 in Rain Light Rain
9:08 PM 33.8 °F 25.8 °F 33.8 °F 100% 29.49 in 1.8 mi North 10.4 mph - 0.02 in Rain Rain
9:20 PM 35.6 °F 25.9 °F 33.8 °F 93% 29.52 in 1.5 mi NNW 16.1 mph - 0.07 in Rain Heavy Rain
9:40 PM 35.6 °F 28.0 °F 33.8 °F 93% 29.51 in 2.0 mi North 10.4 mph - 0.11 in Rain Rain
9:51 PM 34.9 °F 27.7 °F 34.0 °F 97% 30.27 in 2.5 mi North 9.2 mph - 0.13 in Rain Rain
10:00 PM 35.6 °F 27.1 °F 35.6 °F 100% 29.51 in 4.0 mi North 12.7 mph - 0.02 in Rain Light Rain
10:51 PM 34.9 °F 26.2 °F 34.0 °F 97% 30.29 in 10.0 mi NNW 12.7 mph - 0.02 in   Overcast
11:30 PM 35.6 °F 28.0 °F 33.8 °F 93% 29.55 in 10.0 mi NNW 10.4 mph - 0.00 in   Overcast
11:51 PM 34.9 °F 30.8 °F 32.9 °F 92% 30.28 in 10.0 mi NNW 4.6 mph - 0.01 in   Mostly Cloudy
11:59 PM 35.6 °F 30.7 °F 33.8 °F 93% 29.53 in 10.0 mi NNW 5.8 mph - 0.00 in   Scattered Clouds